This demonstration page uses our WeatherBlox Daily Observations layout. Learn more.

41.55636, -103.73856

Hourly Observations for November 21, 2015

Temp ( °F °C ) Dew Point ( °F °C ) Humidity (%) Winds ( mph kmh ) Pressure ( in mb ) Visibility ( mi km ) Precip ( " mm )
12:26 am 00:26 Cloudy 19 -7 12 -11 73 73 NW 12 19 30.68 1039 10 16.0934 0 0
12:53 am 00:53 Mostly Cloudy 16 -8.9 10 -12.2 77 77 NW 9 15 30.58 1036 10 16.0934 0 0
1:53 am 01:53 Mostly Cloudy 11 -11.7 7 -13.9 84 84 WNW 5 7 30.6 1036 10 16.0934 0 0
2:53 am 02:53 Clear 8 -13.3 6 -14.4 92 92 NW 5 7 30.58 1036 10 16.0934 0 0
3:53 am 03:53 Clear 8 -13.3 5 -15 87 87 NW 3 6 30.57 1035 10 16.0934 0 0
4:53 am 04:53 Clear 2 -16.7 -1 -18.3 88 88 Calm 30.58 1035 10 16.0934 0 0
5:53 am 05:53 Clear -1 -18.3 -5 -20.6 82 82 N 5 7 30.56 1035 10 16.0934 0 0
6:53 am 06:53 Sunny 0 -17.8 -4 -20 83 83 NNE 3 6 30.52 1034 10 16.0934 0 0
7:53 am 07:53 Sunny 9 -12.8 4 -15.6 80 80 NNE 5 7 30.5 1033 10 16.0934 0 0
8:53 am 08:53 Sunny 10 -12.2 7 -13.9 87 87 Calm 30.48 1032 10 16.0934 0 0
9:53 am 09:53 Sunny 16 -8.9 10 -12.2 77 77 ESE 6 9 30.44 1031 10 16.0934 0 0
10:53 am 10:53 Sunny 20 -6.7 12 -11.1 71 71 ESE 5 7 30.4 1029 10 16.0934 0 0
11:53 am 11:53 Sunny 26 -3.3 15 -9.4 63 63 ESE 3 6 30.32 1027 10 16.0934 0 0
12:53 pm 12:53 Sunny 29 -1.7 14 -10 54 54 Calm 30.28 1025 10 16.0934 0 0
1:53 pm 13:53 Sunny 32 0 18 -7.8 56 56 NW 5 7 30.26 1025 10 16.0934 0 0
2:53 pm 14:53 Sunny 31 -0.6 18 -7.8 59 59 W 3 6 30.25 1025 10 16.0934 0 0
3:53 pm 15:53 Sunny 30 -1.1 19 -7.2 64 64 Calm 30.25 1025 10 16.0934 0 0
4:53 pm 16:53 Clear 27 -2.8 18 -7.8 69 69 Calm 30.27 1025 10 16.0934 0 0
5:53 pm 17:53 Clear 21 -6.1 15 -9.4 78 78 NNW 6 9 30.3 1026 10 16.0934 0 0
6:53 pm 18:53 Clear 18 -7.8 13 -10.6 81 81 N 7 11 30.31 1026 10 16.0934 0 0
7:53 pm 19:53 Mostly Cloudy 17 -8.3 12 -11.1 80 80 Calm 30.29 1026 10 16.0934 0 0
8:53 pm 20:53 Clear 16 -8.9 12 -11.1 84 84 N 6 9 30.29 1026 10 16.0934 0 0
9:53 pm 21:53 Clear 13 -10.6 11 -11.7 92 92 NNW 6 9 30.27 1025 10 16.0934 0 0
10:53 pm 22:53 Clear 14 -10 11 -11.7 88 88 NW 6 9 30.24 1024 10 16.0934 0 0
11:53 pm 23:53 Clear 12 -11.1 8 -13.3 84 84 NNW 5 7 30.22 1023 10 16.0934 0 0

Powered by AerisWeather